Theta_e
296 295 295 294 294 295 295 295 295 295 295 295 295 295 295 295 295 296 296 297 297 297 298 299 299 299 300 300 300 300 301 302 302 301 301 301 302 303 303 304 304 305 305 306 306 306 306 306 306 307 307 307 307 308 308 310 310 311 312 313 314 315 315 314 314 314 314 314 314
294 294 293 293 293 294 294 294 294 294 294 295 295 295 294 295 295 295 296 296 297 297 298 298 298 298 299 299 299 300 300 301 301 301 301 302 302 303 303 303 303 304 304 305 305 305 306 305 305 306 306 306 306 306 306 307 308 308 309 310 312 313 314 314 314 314 314 314 314
294 294 294 294 294 294 294 294 293 293 293 293 294 294 294 295 295 295 296 296 296 296 297 298 297 297 297 298 299 299 300 300 300 301 301 301 302 302 302 303 303 303 303 303 304 304 304 303 303 304 305 305 304 305 305 306 306 307 308 308 310 311 312 313 314 314 314 314 314
294 294 294 293 293 292 292 293 292 292 292 293 293 293 294 294 295 295 295 295 295 295 296 296 296 297 297 297 298 298 298 298 299 299 300 300 301 301 302 302 302 303 303 303 302 302 303 302 303 303 303 303 303 304 304 305 305 305 306 307 308 308 310 311 313 314 314 314 314
292 293 293 292 292 292 291 291 291 292 292 293 293 294 294 294 294 294 294 295 295 295 295 295 296 296 296 296 297 297 297 297 297 298 299 300 301 301 302 302 303 303 303 303 302 302 302 302 302 303 303 303 304 304 304 303 304 304 305 305 306 307 308 309 311 312 313 313 313
291 291 291 291 291 291 291 291 291 291 292 293 293 293 293 294 294 294 294 294 294 294 294 294 294 295 295 296 296 296 297 297 297 298 299 300 301 301 302 302 303 303 303 303 302 302 302 302 303 303 303 303 303 303 303 302 303 303 304 304 305 306 307 308 309 311 312 312 312
289 289 289 289 289 290 290 290 291 291 292 292 291 292 292 293 293 293 293 294 294 294 294 294 294 294 295 295 295 295 296 296 297 297 298 299 299 300 301 302 302 302 302 302 302 302 302 301 302 302 301 301 303 303 302 302 302 302 303 303 304 304 305 306 308 309 310 311 311
288 288 288 288 288 289 290 290 290 291 291 292 292 291 291 292 292 292 293 293 293 293 293 293 293 293 294 294 294 294 294 295 296 296 297 297 298 298 299 300 301 301 302 302 302 302 302 302 302 302 302 301 302 302 301 301 301 301 302 302 303 303 304 305 306 307 308 309 310
287 288 288 288 288 289 289 289 289 290 290 291 291 291 291 291 292 292 292 293 293 293 292 292 292 292 292 292 293 293 294 294 294 295 295 296 296 297 297 298 298 299 300 301 302 302 302 303 302 302 302 303 303 302 301 300 300 300 301 301 302 302 303 304 305 306 306 307 308
287 287 288 288 288 289 289 289 289 289 290 290 290 290 291 291 291 291 292 293 292 292 292 292 291 292 292 292 292 292 293 293 294 294 294 294 294 295 295 296 296 296 297 298 300 300 301 301 302 302 302 302 303 302 302 300 300 300 300 300 300 301 302 303 304 304 305 306 307
287 287 288 288 288 289 289 289 289 289 290 290 290 290 290 290 291 291 292 292 292 291 291 291 291 291 291 292 292 292 293 293 293 293 293 293 293 294 294 295 295 295 295 296 297 298 298 299 299 300 301 301 301 302 301 301 300 299 299 299 299 300 300 301 303 303 304 304 305
287 287 288 288 288 288 288 289 289 289 289 289 290 290 290 291 291 291 291 291 291 291 291 291 291 291 291 292 292 292 292 292 292 292 293 293 293 293 294 294 294 294 295 295 295 296 297 297 297 298 298 299 300 301 301 301 300 299 299 298 298 299 299 300 301 302 303 304 305
288 288 288 288 288 288 288 288 289 289 289 289 289 290 290 291 291 291 291 290 291 291 292 291 291 291 292 292 292 292 292 292 292 293 293 293 293 293 293 293 294 294 294 295 295 295 296 296 296 296 297 297 298 299 300 300 299 299 298 298 298 298 298 299 300 301 302 303 304
288 288 288 288 287 287 288 288 288 289 289 289 289 290 290 291 291 291 291 291 291 292 292 292 292 292 292 292 292 292 292 293 293 293 293 293 293 293 293 293 293 293 294 294 295 295 295 295 296 296 296 296 297 298 298 299 299 299 298 298 298 297 298 298 299 300 301 302 302
288 288 287 287 287 287 288 288 288 289 289 289 289 290 290 291 291 291 291 291 291 292 292 292 293 293 293 293 293 293 293 293 293 293 293 293 293 293 293 293 293 293 294 294 294 295 295 295 295 296 296 296 297 297 298 298 299 299 298 297 297 297 297 298 298 300 300 301 302
288 287 287 287 287 287 288 288 289 289 289 289 289 290 290 290 291 291 291 291 292 292 292 292 293 293 293 293 293 293 293 293 293 293 293 293 293 293 293 293 293 293 293 293 294 294 295 295 295 296 296 297 297 298 298 299 299 299 298 298 297 297 297 297 298 299 300 300 301
287 287 287 287 287 287 287 288 288 289 289 289 289 289 290 290 291 291 291 291 292 292 292 292 293 293 293 293 293 293 293 293 293 293 293 293 293 292 292 293 293 293 293 293 293 293 294 294 295 296 296 297 298 298 299 299 300 299 298 298 297 297 297 297 297 298 299 299 300
287 287 287 287 287 287 287 287 288 288 288 289 289 289 290 290 291 291 291 291 292 292 292 292 292 293 293 293 293 293 293 293 293 293 293 293 293 293 293 293 293 293 293 293 293 293 293 293 294 295 296 297 297 298 299 300 299 299 298 298 297 297 297 297 297 298 299 299 299
288 288 287 287 287 287 287 287 288 288 288 289 289 289 290 290 290 291 291 291 292 292 292 292 292 293 293 293 293 293 293 293 293 293 293 293 293 293 293 293 293 293 293 293 293 293 293 294 294 295 295 296 297 298 299 300 299 299 298 298 297 297 297 297 298 298 298 299 299
288 288 288 287 287 288 288 288 288 288 289 289 289 289 290 290 291 291 291 291 292 292 292 292 292 292 293 293 293 293 293 293 293 293 293 292 293 292 292 293 293 293 293 293 293 293 293 293 294 294 295 295 296 298 299 299 299 299 298 298 297 297 296 297 297 298 298 298 298
288 288 288 288 288 288 288 288 289 289 289 289 289 289 290 290 291 291 291 291 291 292 292 292 292 292 292 292 292 293 292 293 293 293 292 292 292 292 292 292 293 293 293 293 293 293 293 293 294 294 295 295 296 297 298 299 298 298 298 297 297 296 296 297 297 297 297 297 297
289 289 289 288 288 288 289 289 289 289 289 289 289 290 290 290 290 291 291 291 291 291 291 291 292 292 292 292 292 292 292 292 292 292 292 292 292 293 293 293 293 293 293 293 293 293 293 294 294 294 294 295 296 297 297 298 298 297 297 297 296 296 296 296 296 296 296 296 296
289 289 289 289 289 289 289 289 289 289 289 289 290 290 290 290 291 291 291 291 291 291 291 291 292 292 292 292 292 291 291 291 292 292 292 292 293 293 293 294 293 294 293 293 293 293 294 294 294 294 295 295 296 297 298 298 297 297 297 296 296 296 295 295 295 295 295 294 294
289 289 289 290 289 289 289 289 289 289 289 290 290 290 290 290 291 291 291 291 291 291 291 291 291 291 291 291 291 291 291 291 291 292 292 292 292 293 293 293 293 293 293 293 293 293 293 293 293 294 294 295 296 297 297 298 297 297 296 295 295 295 294 294 294 294 294 293 293
289 289 289 289 289 289 289 289 289 289 290 290 290 290 290 290 291 291 291 291 291 291 291 291 291 291 291 291 291 291 291 291 291 291 291 292 292 292 292 293 293 293 293 293 293 293 293 292 293 293 294 294 295 296 297 297 297 297 296 295 294 294 294 293 293 293 293 293 292
289 289 289 289 289 289 289 289 290 290 290 290 291 291 290 290 291 291 291 291 290 291 291 291 290 290 291 291 291 291 291 291 291 291 291 291 292 292 292 292 293 293 293 293 293 292 292 292 292 292 292 293 294 294 295 296 297 296 296 295 294 293 293 292 292 292 292 292 292
288 288 289 289 289 289 289 289 290 290 290 290 290 290 290 290 291 291 290 290 290 290 290 290 290 290 290 291 291 291 291 291 291 292 292 292 292 292 292 292 292 293 293 293 292 292 292 292 292 292 292 293 294 295 295 296 296 296 295 294 294 293 292 292 291 291 291 291 291
288 288 288 288 288 288 289 289 289 289 289 290 290 290 290 290 290 290 290 290 290 290 290 290 290 290 291 291 291 291 291 291 291 291 292 292 291 291 291 291 292 292 292 292 292 292 292 292 292 292 293 293 295 295 296 296 296 295 295 294 293 293 292 292 291 291 291 291 291
287 287 288 288 288 288 288 288 288 288 289 289 289 289 289 289 289 289 289 289 289 289 289 289 290 290 290 290 290 290 290 290 291 291 291 291 291 291 291 291 291 291 291 291 291 292 292 292 292 292 292 292 294 295 296 296 296 295 294 294 293 293 292 292 291 291 290 290 290
287 287 287 287 287 287 287 287 287 287 288 288 288 288 288 287 287 287 287 287 287 288 288 288 289 289 289 289 289 289 289 289 290 290 290 290 290 290 290 290 291 291 291 291 291 291 291 292 292 291 291 291 292 294 295 296 295 295 294 293 292 292 292 291 291 291 290 290 290
286 286 286 286 286 286 286 286 286 286 286 286 286 286 286 286 286 286 286 286 286 287 287 287 287 287 287 288 288 288 288 289 289 289 289 289 289 289 290 290 290 291 291 291 291 291 291 291 291 291 291 290 291 292 294 295 295 294 294 293 292 292 291 291 291 290 290 290 290
285 285 285 285 284 285 285 285 285 285 285 285 285 285 285 284 285 285 285 285 285 286 286 286 286 286 286 287 287 287 287 287 288 288 288 289 289 289 289 289 290 290 290 290 291 291 291 291 291 291 291 290 291 292 293 294 295 294 294 293 292 291 291 291 291 290 290 290 290
284 284 284 283 283 284 284 284 284 284 284 284 284 284 284 284 284 284 284 284 285 285 285 285 285 285 285 286 286 286 286 287 287 287 288 288 288 288 289 289 290 290 290 290 290 290 290 291 291 291 290 290 291 292 293 294 294 294 293 292 292 291 291 291 290 290 290 290 290
283 283 283 283 283 283 283 283 283 283 283 283 283 283 283 283 283 283 284 284 284 285 285 285 285 285 285 285 286 286 286 286 287 287 288 288 289 288 289 289 289 290 290 290 290 290 290 290 290 291 290 290 291 292 293 293 293 292 292 291 291 291 291 290 290 290 290 290 289
282 282 282 282 282 282 282 282 282 282 282 282 282 282 282 282 283 283 283 284 284 284 284 285 285 285 285 285 286 286 286 286 287 288 288 288 288 288 288 289 289 289 290 290 290 290 290 290 290 290 290 290 291 291 292 291 291 290 290 290 290 289 289 289 289 289 289 289 288
282 281 281 281 281 281 281 281 281 281 281 281 281 281 282 282 283 283 283 284 284 284 284 284 284 284 285 285 285 286 286 286 287 287 287 288 288 288 288 288 288 289 289 289 289 290 290 290 290 290 290 291 290 290 290 290 289 289 289 288 288 288 288 288 288 288 288 288 287
281 281 281 281 281 281 281 281 281 281 281 281 281 281 281 282 282 283 283 283 283 283 283 283 283 284 284 284 285 285 285 286 286 286 287 287 287 287 287 287 288 288 288 289 289 289 290 290 290 290 290 290 289 289 289 288 288 287 287 287 286 286 286 286 286 286 286 286 286
281 281 281 281 281 281 281 281 281 281 281 281 281 281 282 282 282 282 282 283 283 282 282 282 283 283 283 284 284 285 285 286 286 286 286 286 287 287 287 287 287 287 288 288 289 289 290 290 290 290 290 289 288 288 288 287 287 286 286 285 285 285 285 286 285 285 285 285 286
281 281 281 281 281 281 281 281 281 281 281 281 281 281 281 281 281 282 282 282 282 282 282 282 282 283 283 284 284 284 285 285 286 286 286 286 287 287 287 287 287 287 288 288 289 289 290 290 290 290 289 288 288 287 287 286 286 285 285 285 285 285 285 285 285 285 285 285 286
282 281 281 281 281 281 281 280 280 280 280 280 280 280 281 281 281 282 282 282 282 282 282 282 282 283 283 284 284 284 284 285 286 286 286 286 287 287 287 287 287 287 288 289 289 290 290 290 290 289 288 287 287 287 287 286 285 285 285 284 284 284 284 284 284 284 285 285 285
281 281 281 281 281 280 280 280 280 280 280 280 280 280 281 281 281 281 282 282 282 282 282 282 283 283 283 284 284 284 284 284 285 286 286 287 287 287 287 287 287 287 288 289 289 290 290 290 289 289 288 287 287 287 287 286 285 284 284 284 284 284 284 283 284 284 284 284 284
Wind_Speed
3 2 2 2 2 2 2 3 3 3 4 4 4 4 4 4 5 5 5 5 5 5 6 6 6 7 8 10 11 11 11 11 11 10 10 10 10 10 10 10 9 9 8 8 7 7 6 6 5 5 4 4 5 6 6 6 8 9 9 10 9 8 8 10 11 12 13 14 12
3 3 2 2 2 2 2 3 3 4 4 4 4 4 5 5 5 5 5 5 5 5 5 5 6 7 8 10 10 11 11 11 12 11 11 11 11 11 11 10 10 9 9 8 7 6 6 6 5 5 4 4 5 5 6 6 6 8 9 11 10 9 8 8 9 11 12 12 11
3 3 2 2 2 2 3 3 4 4 5 5 5 5 5 5 5 5 5 5 5 5 5 5 6 6 8 10 10 10 10 11 11 11 11 11 11 11 11 11 11 10 10 9 7 6 5 5 4 4 4 5 5 5 5 5 5 6 8 10 9 8 8 8 8 8 9 9 10
3 2 2 2 3 3 3 3 5 5 6 5 5 5 5 5 5 5 5 6 6 6 6 6 6 6 7 8 9 10 10 10 10 10 10 10 11 12 12 12 12 12 11 10 8 7 7 5 4 4 4 4 5 6 5 5 5 5 6 7 7 8 9 9 8 7 7 8 9
3 2 2 2 3 4 4 4 5 6 6 6 6 6 6 5 5 5 5 6 6 6 7 7 7 6 7 7 8 9 9 9 8 8 8 9 10 11 11 12 12 12 11 10 9 9 8 6 5 4 4 4 4 5 5 6 6 6 6 5 6 7 8 8 8 8 7 7 7
3 3 2 2 3 4 4 5 6 6 6 6 6 7 7 6 6 6 7 7 7 8 8 8 7 7 7 8 8 8 7 7 6 7 7 8 9 10 10 11 11 11 11 10 10 10 9 7 5 4 5 5 6 6 6 6 6 6 6 7 7 7 7 8 8 8 8 9 9
3 2 3 3 4 4 5 5 6 6 6 6 7 8 9 8 8 9 9 9 8 8 8 7 7 7 7 7 7 6 6 6 6 6 7 8 9 9 10 10 11 11 11 10 10 10 9 7 6 5 4 5 5 6 7 7 6 7 7 8 7 6 7 9 8 9 10 12 13
2 2 3 4 4 5 5 6 6 6 6 6 8 9 10 10 10 10 10 9 8 7 6 6 7 8 8 7 6 6 6 6 6 6 7 7 9 9 10 10 11 11 11 10 10 10 9 7 6 5 5 5 5 6 6 7 7 8 9 9 8 7 6 7 8 9 10 13 15
2 3 3 4 5 5 6 7 7 7 7 8 9 10 10 10 11 10 10 9 8 7 7 6 8 8 8 7 7 6 6 6 6 6 7 7 8 9 10 10 11 11 11 10 10 10 10 8 6 6 6 6 6 7 7 7 8 9 10 9 9 8 8 8 9 10 12 13 15
3 3 3 4 5 6 6 7 7 7 8 9 10 10 10 11 10 10 9 8 8 8 7 7 7 8 8 8 7 7 6 6 6 7 7 7 8 8 9 10 11 11 12 11 11 11 10 8 8 8 7 7 9 10 10 9 9 10 10 8 8 9 10 10 11 11 12 13 15
3 3 4 4 5 6 6 6 7 7 8 9 10 10 11 11 10 10 9 8 8 9 8 7 8 8 8 7 7 7 7 7 7 7 7 8 8 9 10 10 11 12 12 13 12 11 10 9 9 10 10 9 10 10 10 10 10 11 11 9 9 10 12 12 12 12 12 13 16
4 4 4 5 6 6 6 6 6 7 7 9 10 10 10 10 11 10 10 9 9 9 9 8 8 8 8 7 7 7 7 7 7 8 8 9 10 10 11 11 12 12 13 13 12 11 11 11 12 13 13 13 10 9 10 11 11 12 12 12 11 11 12 13 13 12 12 13 15
4 4 5 5 6 6 7 7 6 7 8 9 10 10 10 10 11 11 10 10 10 10 9 8 8 8 8 8 8 8 8 8 8 9 9 10 10 11 11 12 12 13 13 13 12 12 12 13 14 15 16 15 13 11 11 11 12 13 13 14 13 13 13 14 14 13 13 14 15
5 5 5 6 6 6 6 7 7 7 8 9 9 10 10 10 11 10 10 11 11 10 9 9 8 8 8 8 9 9 9 9 10 10 11 11 11 12 12 12 13 13 13 12 12 13 14 15 16 17 17 18 17 15 14 13 13 13 14 15 15 15 15 14 14 14 14 15 15
5 6 6 5 6 6 6 7 7 7 8 9 9 9 10 10 10 10 10 11 11 10 9 9 9 9 9 9 10 10 10 10 11 11 12 12 12 12 13 13 13 13 13 13 13 14 15 16 17 17 18 19 19 19 17 16 15 15 15 16 16 17 16 15 14 14 14 15 15
6 6 5 5 6 6 7 7 7 7 8 9 9 9 10 10 10 10 10 11 10 10 9 10 10 10 10 10 10 11 11 11 12 12 12 12 13 13 13 13 13 14 14 14 14 15 15 16 16 18 19 20 20 20 19 18 17 16 16 16 17 17 16 15 14 14 14 15 15
6 6 6 6 7 7 8 8 8 8 8 10 10 10 10 10 9 10 10 11 10 10 11 11 11 10 10 11 11 10 11 12 12 12 12 13 13 13 13 13 13 14 14 14 15 16 17 17 17 18 19 21 20 20 19 19 18 16 16 16 16 16 16 15 14 14 14 15 15
7 7 7 7 8 8 9 9 9 9 10 10 11 10 10 10 10 10 11 11 11 12 12 13 12 11 12 12 12 10 10 12 12 12 13 13 13 13 13 13 13 14 14 14 15 16 17 18 18 19 19 20 20 20 19 18 17 16 15 15 15 15 15 14 14 14 14 15 15
9 9 9 9 9 10 10 10 10 10 11 11 11 11 11 11 11 11 11 12 12 12 13 13 13 13 13 13 13 11 10 11 13 13 13 12 12 12 13 13 13 14 14 15 15 17 18 19 19 20 20 21 20 20 19 19 17 16 15 15 15 15 15 14 14 14 14 14 15
10 10 10 10 10 10 11 11 11 11 11 11 11 12 12 12 12 12 13 13 13 13 13 13 13 13 13 14 14 12 11 11 12 12 12 12 12 12 13 13 14 14 15 15 16 17 18 19 20 21 21 22 21 21 20 19 18 17 16 15 15 15 15 15 14 14 14 14 14
10 10 10 11 11 11 12 12 12 12 12 12 13 13 13 13 13 13 13 13 13 13 13 13 13 14 14 14 14 13 12 10 10 11 11 11 12 12 13 13 14 14 15 16 17 18 19 20 21 21 21 21 21 21 20 19 18 17 17 15 15 15 15 15 15 14 14 14 13
10 10 11 11 12 12 13 13 13 13 13 13 13 13 13 13 13 13 13 13 12 12 12 13 13 13 14 13 13 12 11 9 10 10 11 11 12 13 13 14 15 15 16 16 18 19 20 21 21 21 21 21 21 21 20 19 18 17 16 16 15 15 15 15 14 14 13 13 12
11 11 12 12 13 13 14 14 14 14 14 14 14 14 14 14 13 13 13 12 12 12 12 12 12 12 12 12 11 11 10 10 10 11 11 12 13 13 14 14 15 16 17 17 18 19 19 19 20 20 20 20 20 20 20 19 18 17 16 16 16 15 15 14 13 13 12 12 11
12 13 13 12 14 15 15 15 15 15 14 14 14 14 14 14 13 13 13 13 13 13 12 11 11 11 11 11 11 10 11 11 12 13 13 14 14 14 15 15 15 16 17 16 16 17 17 16 16 17 18 18 18 18 17 17 17 16 16 16 16 15 14 13 13 12 12 12 11
14 14 14 14 15 15 16 16 16 16 16 16 15 15 15 14 14 13 13 13 13 13 13 12 11 10 10 10 10 11 11 12 13 14 15 15 16 16 15 15 15 15 14 14 18 21 21 19 17 16 16 17 18 18 17 17 17 17 16 16 15 15 14 13 13 13 12 12 12
15 15 15 15 16 16 16 17 17 17 17 17 16 16 16 15 14 13 13 13 13 13 12 12 11 10 10 10 11 12 13 13 14 15 16 16 17 17 17 15 14 13 13 15 19 22 23 23 22 20 18 18 18 18 18 17 18 17 17 17 16 15 14 13 13 13 13 12 12
15 16 16 16 16 16 17 17 17 17 17 17 17 17 16 15 14 13 13 13 13 12 11 11 10 10 10 10 12 14 14 14 14 16 17 17 18 19 18 17 15 13 14 17 20 22 23 24 24 23 22 19 19 19 18 17 17 17 17 17 16 16 15 15 14 14 13 12 13
15 16 16 16 16 16 16 16 16 17 17 17 17 16 16 15 15 14 13 13 13 12 11 10 10 9 9 10 12 14 15 16 16 16 17 18 19 19 19 17 16 15 16 20 22 23 24 24 24 23 22 20 19 18 18 17 15 15 14 15 15 16 16 16 15 14 14 14 13
15 15 15 16 16 16 16 16 16 17 17 17 16 16 15 15 15 15 14 14 14 13 12 11 9 9 10 12 14 15 16 17 17 16 17 18 19 20 20 19 18 19 20 23 24 25 25 25 25 25 24 22 18 15 14 13 12 12 12 12 13 15 15 15 14 14 14 14 14
14 14 15 15 15 15 15 16 16 16 16 15 15 16 16 16 16 16 16 15 16 15 14 13 12 13 14 15 15 16 16 17 17 17 17 19 20 20 20 20 19 20 21 24 26 26 27 27 27 27 26 26 23 19 16 14 12 11 11 11 13 14 15 15 16 16 16 15 15
14 14 14 15 15 15 15 16 16 16 16 15 16 17 17 17 17 17 17 17 17 16 16 16 17 18 18 17 17 17 18 18 18 18 18 19 20 20 21 21 21 21 22 25 26 27 27 28 28 28 28 27 24 20 17 16 14 12 12 12 14 15 16 16 17 17 18 17 16
14 14 15 15 15 16 16 16 16 17 17 17 18 18 18 18 18 18 18 17 17 18 18 19 19 19 20 20 19 19 19 19 19 19 19 20 21 22 22 21 22 22 23 25 26 27 28 28 28 28 28 28 24 22 20 19 16 15 14 15 16 17 18 16 16 18 19 19 18
14 14 15 15 16 16 17 17 17 17 17 18 18 18 19 19 19 18 18 17 17 18 19 19 20 20 20 20 20 20 20 20 20 21 21 21 22 22 22 21 20 21 22 25 26 27 27 28 28 29 29 28 25 22 21 20 16 14 14 15 17 18 19 18 17 17 19 19 18
14 15 15 16 17 17 17 17 16 16 17 17 18 18 19 19 19 19 19 18 17 18 18 19 19 19 19 19 19 20 20 19 19 20 21 21 21 22 21 20 17 18 21 24 26 27 27 28 28 29 29 28 24 21 20 19 15 13 13 14 15 16 17 17 17 17 18 18 16
14 15 16 16 17 17 17 17 17 17 17 17 18 18 18 19 19 19 19 19 19 19 19 19 19 19 18 18 19 19 20 20 20 20 20 20 20 20 21 21 20 21 24 26 27 28 28 28 29 29 28 26 21 17 15 15 13 13 13 14 14 15 15 15 14 14 15 16 15
15 15 15 16 17 18 18 17 17 17 18 18 18 18 18 19 19 19 19 19 19 19 19 19 19 19 19 19 19 19 19 20 20 20 19 19 19 20 22 23 23 25 27 28 29 29 29 29 29 30 28 24 16 12 11 11 11 12 13 14 14 14 14 13 12 12 13 13 14
15 15 16 17 18 19 19 18 18 18 18 19 19 19 19 19 19 19 18 18 18 19 19 19 19 19 19 19 19 19 19 19 20 20 20 20 20 21 23 24 25 26 27 28 29 30 30 30 30 29 26 18 11 9 10 10 10 11 13 14 14 14 14 12 12 12 12 13 14
16 16 17 18 19 20 20 19 19 19 19 19 19 19 19 19 19 19 18 17 17 18 19 19 20 20 20 20 20 20 20 20 20 21 21 21 22 22 23 25 25 25 25 26 28 29 29 29 30 27 21 13 11 11 10 10 10 11 12 12 13 13 12 11 10 11 12 14 15
17 18 19 20 20 20 21 21 20 20 20 20 20 20 20 19 18 18 17 17 18 18 19 20 20 20 20 20 20 20 21 21 20 21 21 22 22 23 24 26 26 25 25 26 27 28 29 30 28 22 18 15 13 12 10 10 12 12 12 12 12 12 12 11 10 10 12 14 18
18 19 19 20 20 21 21 22 22 21 20 20 21 21 21 20 19 18 18 17 18 18 19 19 21 21 20 20 20 20 21 21 20 20 21 21 22 24 26 26 26 26 26 26 28 29 29 28 21 20 21 16 14 12 11 11 12 13 13 12 12 12 11 11 10 10 11 13 16
18 19 20 21 21 21 21 22 22 22 21 21 21 21 20 19 19 18 18 17 18 18 18 18 20 21 21 20 19 19 20 21 21 21 21 22 23 24 25 25 25 25 25 25 27 27 24 21 21 24 23 15 13 12 11 12 13 14 14 14 13 12 12 11 10 10 10 11 12
Wind_Direction
261 253 243 235 238 249 262 272 275 278 279 282 283 285 287 291 293 294 295 297 298 298 299 299 300 302 303 304 305 306 306 305 303 300 298 296 294 294 294 294 294 294 293 292 293 294 296 297 297 296 296 295 297 298 298 301 305 307 308 308 305 298 289 278 270 264 260 255 252
272 265 258 253 259 271 282 289 289 288 286 285 285 286 287 289 290 290 290 289 288 289 291 293 295 297 300 302 304 306 306 306 305 303 302 300 297 296 295 293 290 288 285 283 283 284 285 287 289 290 290 291 293 294 295 298 302 304 304 305 305 302 296 284 275 269 265 259 253
279 280 284 290 297 301 302 301 299 296 294 292 291 290 289 289 288 287 285 283 282 283 285 287 288 290 294 298 301 302 303 303 304 305 305 304 304 303 301 298 294 290 286 281 278 275 274 275 277 279 281 285 287 288 290 294 296 297 298 299 301 301 299 293 285 277 271 265 256
283 285 292 300 302 302 301 302 302 300 299 296 295 293 291 289 287 285 283 283 283 283 282 280 281 283 287 290 293 295 297 300 303 305 307 309 309 309 308 305 302 298 293 287 282 276 271 267 266 266 269 273 278 280 281 286 288 288 289 292 294 295 295 294 291 284 275 270 262
283 277 277 286 296 299 301 304 304 303 300 299 298 297 294 291 289 287 286 287 285 281 278 277 277 279 281 282 286 289 293 298 302 307 311 312 313 313 313 311 308 305 301 296 290 285 279 273 269 264 260 261 264 266 268 273 277 279 281 285 286 288 290 291 289 285 278 272 267
270 273 279 290 301 306 308 308 304 300 298 297 297 296 294 292 290 289 287 284 282 280 279 278 278 279 279 280 282 286 291 297 303 307 311 312 314 315 315 314 311 309 305 301 297 293 290 286 282 274 268 265 266 265 265 267 271 275 277 279 277 279 282 284 286 285 281 275 270
257 275 292 302 307 308 307 304 300 298 296 296 294 292 289 288 286 285 283 282 283 283 282 281 279 278 278 278 280 283 288 295 300 305 309 311 313 314 315 315 313 311 308 304 301 298 296 292 288 282 276 272 273 271 269 267 267 269 271 272 271 272 273 276 280 281 280 277 272
267 285 296 301 302 301 298 296 295 295 296 296 293 290 288 286 285 284 284 285 284 282 280 280 278 276 276 276 278 281 286 293 298 302 306 309 311 312 313 314 313 312 309 306 303 300 297 293 289 283 279 274 272 270 267 264 262 262 263 265 265 265 265 268 272 276 277 277 274
280 287 291 294 295 292 291 289 290 291 292 292 291 289 288 288 286 286 285 285 282 280 279 279 279 278 278 279 281 285 288 292 296 300 303 306 308 309 310 311 311 310 309 308 304 300 297 294 289 284 280 277 276 273 269 263 259 257 256 258 260 261 260 261 265 269 272 274 273
270 277 282 287 286 285 286 287 288 289 290 290 290 290 290 289 288 287 285 282 282 281 281 279 280 281 283 285 287 289 291 293 296 299 302 302 303 304 306 306 307 306 306 306 305 302 299 295 290 285 281 276 275 273 271 266 259 254 252 252 254 256 258 259 261 265 268 270 270
258 264 270 276 278 280 283 287 288 289 290 290 290 290 290 289 288 286 285 284 284 283 281 279 281 282 284 286 287 289 290 294 297 299 300 299 300 300 301 301 301 301 301 302 302 301 299 296 292 288 284 278 274 272 269 265 259 254 252 250 250 252 254 257 258 261 264 267 267
257 262 266 270 274 278 282 285 287 288 288 288 289 289 289 288 287 286 286 286 285 283 282 281 281 282 284 286 287 288 290 292 294 295 296 296 296 297 297 296 296 297 297 297 298 297 295 293 292 290 288 283 278 272 267 263 259 256 254 252 250 249 251 253 255 257 259 263 265
258 263 267 270 274 277 280 283 284 286 287 287 287 287 287 287 286 286 286 286 285 285 284 284 283 283 284 285 286 287 288 289 290 290 291 291 292 292 292 292 292 292 293 293 293 292 291 290 290 289 288 286 282 276 269 263 259 257 256 255 252 249 248 249 251 253 256 258 261
260 263 266 269 273 276 279 282 283 285 285 285 285 286 286 286 286 285 285 285 284 284 285 285 284 284 283 283 284 284 284 285 286 286 286 286 286 287 287 287 288 288 289 289 289 288 288 287 287 287 286 285 282 279 274 267 261 258 256 255 252 249 247 245 246 249 252 254 256
264 264 266 269 273 276 279 281 282 284 285 285 285 285 285 285 285 285 284 284 283 284 284 285 284 283 282 281 281 281 281 281 281 281 281 281 281 281 282 282 283 284 284 285 285 285 285 285 285 285 284 283 282 280 277 272 266 260 256 253 250 247 244 240 240 243 247 250 252
269 269 270 273 276 278 280 281 283 284 285 284 285 285 285 285 285 284 283 283 283 283 283 282 282 282 281 280 279 278 278 278 277 277 276 276 276 276 277 277 278 279 280 281 282 282 282 283 283 283 283 282 281 279 277 274 270 264 257 251 247 244 241 237 236 238 241 244 246
278 277 278 279 280 281 281 282 283 284 285 284 284 284 284 284 284 283 282 281 281 282 281 280 280 280 280 279 278 277 276 276 274 273 272 272 272 272 272 273 274 275 277 278 279 280 281 282 281 281 281 281 279 278 276 274 271 265 258 249 244 240 238 235 234 236 239 240 241
289 287 286 285 284 283 283 283 284 284 284 284 284 284 283 283 282 282 281 280 280 280 280 280 279 279 278 277 276 275 273 273 272 270 269 269 268 268 269 270 271 272 274 275 277 278 279 280 281 281 280 279 278 276 274 272 269 263 255 246 241 238 236 236 235 236 237 237 236
295 293 290 288 287 286 285 285 285 285 284 284 283 283 282 281 280 280 280 279 278 278 278 278 278 278 276 275 274 273 271 270 270 269 267 266 266 266 267 268 270 271 272 274 275 276 278 279 279 279 279 278 277 275 273 271 268 261 252 243 238 235 234 235 234 234 234 233 230
295 292 291 289 289 288 288 287 287 286 285 284 283 282 281 279 278 278 277 277 276 276 276 277 277 277 276 275 274 272 271 269 269 268 267 266 266 266 266 268 270 271 272 273 274 275 276 277 277 278 277 277 275 274 272 271 268 262 252 241 236 233 232 232 232 231 230 228 224
292 290 290 290 290 290 290 289 288 287 286 285 283 282 280 279 277 276 274 274 274 275 275 275 275 275 275 274 273 272 270 270 269 268 268 268 267 267 267 269 270 271 273 273 274 274 275 275 275 276 275 275 273 272 271 271 268 262 253 242 235 231 229 228 227 226 224 221 216
294 293 293 293 292 292 291 291 290 289 287 285 284 282 280 279 277 275 273 273 274 274 274 273 272 272 272 271 271 270 270 270 269 268 268 268 269 269 270 271 272 273 273 273 273 273 273 273 273 273 272 272 271 269 268 266 264 259 252 243 236 231 227 224 222 220 217 213 208
300 299 298 296 296 295 294 293 292 290 289 287 285 283 281 279 278 276 276 275 275 274 273 272 271 270 269 267 267 267 268 269 268 268 267 267 268 270 271 273 273 273 272 272 271 271 271 271 271 271 271 270 269 267 265 262 259 254 248 241 235 230 225 221 216 213 209 204 199
305 303 302 300 299 298 298 297 295 293 291 289 287 285 283 282 281 280 279 278 277 276 274 273 271 269 268 267 265 265 265 267 268 269 270 270 270 271 272 272 271 270 270 268 267 266 266 267 269 270 271 270 269 268 265 262 258 252 246 238 232 227 222 216 210 205 200 196 191
307 305 304 303 302 302 300 299 298 296 294 293 291 290 288 287 285 284 283 281 280 278 277 275 274 273 271 270 269 268 268 268 270 272 274 274 274 273 273 271 270 268 267 265 263 262 262 261 263 265 267 269 269 268 267 264 259 252 243 233 226 221 216 209 203 198 193 189 185
308 307 307 306 305 303 302 300 299 298 297 296 296 295 293 292 291 289 288 286 285 283 282 281 280 279 277 275 275 274 273 273 273 274 275 275 275 273 271 269 266 265 263 261 260 260 259 259 258 258 260 262 263 263 262 260 255 247 238 227 220 213 208 202 197 193 189 185 181
310 309 308 307 306 304 303 302 301 300 300 300 299 299 299 298 298 297 295 293 292 291 290 288 286 284 282 280 279 278 277 277 276 275 274 273 272 271 269 267 265 262 260 259 259 259 259 259 258 257 256 257 258 257 256 254 249 241 231 220 213 207 202 196 191 188 184 182 178
311 310 309 308 307 305 305 305 305 304 304 304 304 304 305 305 304 303 301 300 298 297 295 292 288 287 285 283 281 279 279 278 277 275 274 272 270 269 268 266 264 262 260 260 260 260 260 260 260 259 258 259 260 258 256 253 247 236 224 214 208 203 198 193 187 183 180 177 174
311 311 311 310 309 309 309 310 310 310 309 309 309 310 309 308 307 305 303 301 300 298 295 292 290 288 285 282 281 280 279 278 276 275 273 272 270 268 267 266 265 263 262 261 261 261 261 261 262 262 261 261 262 263 262 258 248 233 219 208 203 198 194 190 185 181 177 173 169
314 314 314 314 314 314 314 314 314 313 313 313 312 311 309 307 305 303 301 299 297 295 293 292 291 288 285 282 282 281 279 277 276 274 273 271 270 268 267 266 265 264 264 263 262 262 262 261 261 261 261 261 261 264 265 263 251 234 217 206 199 194 190 186 182 179 176 171 167
318 319 319 318 317 316 316 315 314 314 313 312 310 308 306 304 301 299 298 297 295 294 293 292 290 287 285 283 282 280 279 278 276 275 273 271 270 269 268 267 266 265 264 263 262 262 261 261 260 260 259 258 258 258 260 259 249 233 216 204 196 190 186 182 180 177 174 169 165
322 322 322 320 318 316 315 314 313 312 311 309 307 305 303 300 298 297 296 295 295 294 293 291 289 287 285 283 281 279 278 277 275 274 272 271 270 269 268 267 265 264 263 262 261 261 260 259 259 258 257 256 255 255 255 254 244 229 213 200 194 188 184 181 179 175 172 168 164
324 323 321 319 316 314 313 312 310 309 308 306 304 302 300 299 297 296 295 294 293 292 291 289 287 285 283 282 281 279 277 275 273 272 271 269 269 268 267 266 265 263 262 261 260 259 259 258 257 256 255 253 253 253 252 249 237 222 206 195 189 184 181 178 176 174 171 167 164
323 322 319 316 314 311 310 308 307 306 304 302 300 299 298 297 296 295 294 293 292 290 288 286 284 283 281 280 278 277 276 274 272 271 270 268 268 267 266 265 264 262 261 261 260 259 258 257 256 255 254 252 252 252 247 237 222 206 193 185 180 177 174 173 172 170 167 164 161
321 319 316 313 310 308 307 305 304 302 301 299 297 296 296 295 294 293 292 292 290 288 286 284 282 281 279 278 276 275 274 273 272 271 270 269 268 268 267 266 265 264 263 262 262 260 259 257 256 254 253 253 252 246 234 216 200 186 176 169 166 163 162 162 162 161 160 157 154
317 315 312 309 307 305 304 303 302 301 299 297 296 296 295 294 293 292 292 291 290 288 285 284 283 281 280 278 277 275 274 274 274 273 272 271 270 269 268 267 267 266 265 264 263 261 259 257 256 255 254 254 246 227 203 186 175 165 159 154 151 148 147 146 147 148 149 149 148
313 311 308 305 304 303 303 302 301 300 298 297 296 296 295 295 294 293 292 292 290 288 286 285 284 282 280 279 278 277 275 275 275 274 273 271 270 269 268 268 267 266 265 264 263 261 259 257 257 256 254 246 222 191 173 163 156 150 146 142 139 136 134 133 134 137 139 141 142
310 309 306 305 304 303 303 302 301 300 298 298 297 296 296 295 294 293 292 291 289 287 286 285 283 281 280 279 278 277 275 274 273 272 272 270 268 267 267 267 267 267 266 264 262 260 259 258 259 254 242 211 185 170 160 152 146 141 138 135 130 127 125 125 126 128 131 135 137
309 308 307 305 304 303 303 302 301 300 299 299 298 297 296 295 294 292 291 289 287 285 284 283 281 280 279 278 278 276 275 273 271 270 269 268 267 266 266 266 267 267 266 264 262 261 260 261 256 238 207 175 167 161 154 146 141 137 134 130 125 121 119 118 120 122 126 131 134
309 308 307 306 305 304 303 302 301 300 299 299 298 297 296 295 292 291 289 287 285 283 282 281 280 279 278 278 277 276 275 273 271 269 267 266 266 266 266 266 267 267 266 264 263 262 260 257 235 201 176 162 159 154 148 143 138 135 132 128 124 120 117 116 117 120 123 127 131
309 309 308 306 305 304 303 302 301 300 299 298 296 295 294 293 291 290 288 286 284 282 281 279 279 279 278 277 276 275 274 273 272 270 268 267 267 267 267 267 267 267 266 265 262 258 249 228 192 173 164 156 153 149 145 141 136 133 131 128 125 122 120 118 118 119 122 125 128